When you browse on this site, cookies collect data to enhance your experience and personalize the content and advertising you see.
Visit our Privacy Policy to learn more. By continuing to use the site, you agree to this use of cookies and data.
  • In Hungary
  • List of Countries
  • For 7 days
  • Water Temperature
  • Weather Map
  • News
  • Weather Widgets
  • user-avatar
    Login

    Hourly Weather Amsterdam

    Today, 12 December, Thursday

    Time Temperature Precipitation Wind Pressure Humidity
    00:00 -24°C° 0 mm 0 mps 720 mmHg 79%
    01:00 -23°C° 0 mm 1 mps 720 mmHg 78%
    02:00 -23°C° 0 mm 1 mps 720 mmHg 78%
    03:00 -22°C° 0 mm 1 mps 719 mmHg 80%
    04:00 -22°C° 0 mm 1 mps 719 mmHg 81%
    05:00 -25°C° 0 mm 2 mps 719 mmHg 83%
    06:00 -24°C° 0 mm 2 mps 719 mmHg 84%
    07:00 -24°C° 0 mm 2 mps 718 mmHg 85%
    08:00 -24°C° 0 mm 2 mps 718 mmHg 87%
    09:00 -24°C° 0 mm 2 mps 718 mmHg 89%
    10:00 -24°C° 0 mm 3 mps 718 mmHg 91%
    11:00 -23°C° 0 mm 3 mps 717 mmHg 94%
    12:00 -23°C° 0.1 mm 3 mps 717 mmHg 94%
    13:00 -23°C° 0.1 mm 3 mps 716 mmHg 95%
    14:00 -22°C° 0.1 mm 3 mps 716 mmHg 95%
    15:00 -23°C° 0.2 mm 4 mps 715 mmHg 96%
    16:00 -23°C° 0.2 mm 4 mps 715 mmHg 96%
    17:00 -23°C° 0.2 mm 4 mps 715 mmHg 96%
    18:00 -22°C° 0.3 mm 3 mps 715 mmHg 96%
    19:00 -22°C° 0.3 mm 3 mps 714 mmHg 96%
    20:00 -21°C° 0.3 mm 3 mps 714 mmHg 96%
    21:00 -21°C° 0.2 mm 3 mps 714 mmHg 96%
    22:00 -21°C° 0.2 mm 3 mps 714 mmHg 96%
    23:00 -21°C° 0.2 mm 3 mps 714 mmHg 96%

    Tomorrow, 13 December, Friday

    Time Temperature Precipitation Wind Pressure Humidity
    00:00 -21°C° 0.1 mm 3 mps 714 mmHg 96%
    01:00 -21°C° 0.1 mm 3 mps 714 mmHg 96%
    02:00 -21°C° 0.1 mm 3 mps 714 mmHg 96%
    03:00 -22°C° 0 mm 3 mps 714 mmHg 96%
    04:00 -22°C° 0 mm 3 mps 714 mmHg 96%
    05:00 -22°C° 0 mm 3 mps 715 mmHg 96%
    06:00 -23°C° 0 mm 3 mps 715 mmHg 96%
    07:00 -23°C° 0 mm 3 mps 716 mmHg 96%
    08:00 -23°C° 0 mm 3 mps 716 mmHg 96%
    09:00 -23°C° 0 mm 3 mps 717 mmHg 95%
    10:00 -23°C° 0 mm 3 mps 717 mmHg 95%
    11:00 -23°C° 0 mm 3 mps 718 mmHg 95%
    12:00 -23°C° 0 mm 3 mps 718 mmHg 95%
    13:00 -23°C° 0 mm 3 mps 719 mmHg 95%
    14:00 -21°C° 0 mm 2 mps 719 mmHg 95%
    15:00 -23°C° 0 mm 2 mps 720 mmHg 95%
    16:00 -24°C° 0 mm 2 mps 720 mmHg 95%
    17:00 -27°C° 0 mm 3 mps 720 mmHg 96%
    18:00 -26°C° 0 mm 2 mps 720 mmHg 96%
    19:00 -27°C° 0 mm 2 mps 720 mmHg 97%
    20:00 -28°C° 0 mm 2 mps 720 mmHg 97%
    21:00 -29°C° 0 mm 2 mps 720 mmHg 96%
    22:00 -29°C° 0 mm 2 mps 720 mmHg 95%
    23:00 -30°C° 0 mm 2 mps 720 mmHg 94%

    Day after tomorrow, 14 December, Saturday

    Time Temperature Precipitation Wind Pressure Humidity
    00:00 -30°C° 0 mm 2 mps 720 mmHg 91%
    01:00 -30°C° 0 mm 2 mps 720 mmHg 89%
    02:00 -30°C° 0 mm 2 mps 720 mmHg 86%
    03:00 -29°C° 0 mm 1 mps 720 mmHg 84%
    04:00 -29°C° 0 mm 1 mps 719 mmHg 82%
    05:00 -29°C° 0 mm 1 mps 719 mmHg 80%
    06:00 -29°C° 0 mm 1 mps 719 mmHg 79%
    07:00 -30°C° 0 mm 1 mps 719 mmHg 78%
    08:00 -30°C° 0 mm 1 mps 718 mmHg 77%
    09:00 -29°C° 0 mm 1 mps 718 mmHg 79%
    10:00 -27°C° 0 mm 1 mps 718 mmHg 80%
    11:00 -25°C° 0 mm 1 mps 718 mmHg 82%
    12:00 -25°C° 0 mm 1 mps 718 mmHg 84%
    13:00 -25°C° 0 mm 1 mps 718 mmHg 86%
    14:00 -25°C° 0 mm 1 mps 717 mmHg 88%
    15:00 -25°C° 0 mm 1 mps 717 mmHg 90%
    16:00 -27°C° 0 mm 1 mps 716 mmHg 92%
    17:00 -28°C° 0 mm 1 mps 716 mmHg 94%
    18:00 -30°C° 0 mm 2 mps 716 mmHg 94%
    19:00 -30°C° 0 mm 2 mps 716 mmHg 95%
    20:00 -30°C° 0 mm 2 mps 716 mmHg 95%
    21:00 -29°C° 0 mm 2 mps 715 mmHg 95%
    22:00 -28°C° 0 mm 2 mps 715 mmHg 95%
    23:00 -28°C° 0 mm 2 mps 715 mmHg 95%

    15 December, Sunday

    Time Temperature Precipitation Wind Pressure Humidity
    00:00 -30°C° 0 mm 3 mps 714 mmHg 96%
    01:00 -30°C° 0 mm 3 mps 714 mmHg 96%
    02:00 -31°C° 0 mm 3 mps 713 mmHg 96%
    03:00 -30°C° 0 mm 3 mps 713 mmHg 96%
    04:00 -30°C° 0 mm 3 mps 712 mmHg 96%
    05:00 -27°C° 0 mm 2 mps 712 mmHg 96%
    06:00 -26°C° 0.1 mm 2 mps 712 mmHg 97%
    07:00 -24°C° 0.1 mm 2 mps 712 mmHg 97%
    08:00 -23°C° 0.1 mm 2 mps 712 mmHg 98%
    09:00 -21°C° 0.1 mm 2 mps 712 mmHg 97%
    10:00 -21°C° 0.1 mm 3 mps 712 mmHg 96%
    11:00 -19°C° 0.1 mm 3 mps 711 mmHg 94%
    12:00 -19°C° 0.1 mm 3 mps 711 mmHg 94%
    13:00 -19°C° 0.1 mm 3 mps 711 mmHg 94%
    14:00 -19°C° 0.1 mm 3 mps 711 mmHg 93%
    15:00 -22°C° 0 mm 3 mps 711 mmHg 94%
    16:00 -24°C° 0 mm 4 mps 712 mmHg 94%
    17:00 -25°C° 0 mm 4 mps 712 mmHg 94%
    18:00 -26°C° 0 mm 4 mps 712 mmHg 95%
    19:00 -29°C° 0 mm 4 mps 712 mmHg 96%
    20:00 -29°C° 0 mm 3 mps 713 mmHg 96%
    21:00 -29°C° 0 mm 3 mps 713 mmHg 96%
    22:00 -29°C° 0 mm 3 mps 713 mmHg 96%
    23:00 -30°C° 0 mm 3 mps 713 mmHg 96%

    16 December, Monday

    Time Temperature Precipitation Wind Pressure Humidity
    00:00 -30°C° 0 mm 3 mps 713 mmHg 96%
    01:00 -30°C° 0 mm 3 mps 713 mmHg 96%
    02:00 -30°C° 0 mm 3 mps 713 mmHg 96%
    03:00 -30°C° 0 mm 3 mps 712 mmHg 96%
    04:00 -29°C° 0 mm 3 mps 712 mmHg 95%
    05:00 -29°C° 0 mm 3 mps 712 mmHg 95%
    06:00 -29°C° 0 mm 3 mps 712 mmHg 95%
    07:00 -30°C° 0 mm 3 mps 712 mmHg 96%
    08:00 -30°C° 0 mm 3 mps 712 mmHg 96%
    09:00 -29°C° 0 mm 3 mps 712 mmHg 95%
    10:00 -27°C° 0 mm 3 mps 712 mmHg 95%
    11:00 -27°C° 0 mm 4 mps 712 mmHg 94%
    12:00 -27°C° 0 mm 4 mps 713 mmHg 94%
    13:00 -27°C° 0 mm 4 mps 713 mmHg 93%
    14:00 -26°C° 0 mm 4 mps 713 mmHg 93%
    15:00 -27°C° 0 mm 4 mps 714 mmHg 93%
    16:00 -29°C° 0 mm 4 mps 714 mmHg 93%
    17:00 -30°C° 0 mm 4 mps 715 mmHg 94%
    18:00 -32°C° 0 mm 4 mps 715 mmHg 94%
    19:00 -33°C° 0 mm 4 mps 716 mmHg 94%
    20:00 -33°C° 0 mm 3 mps 716 mmHg 94%
    21:00 -34°C° 0 mm 3 mps 716 mmHg 94%
    22:00 -34°C° 0 mm 3 mps 717 mmHg 94%
    23:00 -35°C° 0 mm 3 mps 717 mmHg 94%

    17 December, Tuesday

    Time Temperature Precipitation Wind Pressure Humidity
    00:00 -35°C° 0 mm 3 mps 717 mmHg 94%
    01:00 -36°C° 0 mm 3 mps 717 mmHg 94%
    02:00 -36°C° 0 mm 3 mps 717 mmHg 94%
    03:00 -36°C° 0 mm 3 mps 717 mmHg 94%
    04:00 -36°C° 0 mm 3 mps 717 mmHg 94%
    05:00 -36°C° 0 mm 3 mps 717 mmHg 94%
    06:00 -36°C° 0 mm 3 mps 717 mmHg 94%
    07:00 -38°C° 0 mm 3 mps 717 mmHg 94%
    08:00 -38°C° 0 mm 3 mps 717 mmHg 94%
    09:00 -36°C° 0 mm 3 mps 717 mmHg 93%
    10:00 -34°C° 0 mm 3 mps 717 mmHg 93%
    11:00 -33°C° 0 mm 3 mps 717 mmHg 92%
    12:00 -33°C° 0 mm 3 mps 717 mmHg 92%
    13:00 -30°C° 0 mm 2 mps 716 mmHg 92%
    14:00 -30°C° 0 mm 2 mps 716 mmHg 91%
    15:00 -31°C° 0 mm 2 mps 715 mmHg 90%
    16:00 -32°C° 0 mm 2 mps 715 mmHg 89%
    17:00 -34°C° 0 mm 2 mps 715 mmHg 87%
    18:00 -34°C° 0 mm 2 mps 715 mmHg 86%
    19:00 -34°C° 0 mm 2 mps 715 mmHg 85%
    20:00 -34°C° 0 mm 2 mps 715 mmHg 85%
    21:00 -34°C° 0 mm 2 mps 715 mmHg 85%
    22:00 -34°C° 0 mm 2 mps 715 mmHg 86%
    23:00 -34°C° 0 mm 2 mps 716 mmHg 87%
    Show more